Milton, FL

5:40 PM CST on February 22, 2018 (GMT -0600)
Whiting Field Naval Air Station (South)

Weather History for KNDZ - June, 2014

Change the Weather History Date:

Saturday, June 7, 2014

  Actual Average (KNSE) Record (KNSE)
Temperature  
Mean Temperature 82 °F -  
Max Temperature 93 °F 84 °F 99 °F (2011)
Min Temperature 71 °F 68 °F 60 °F (2006)
Cooling Degree Days 17    
Growing Degree Days 32 (Base 50)    
Moisture  
Dew Point 71 °F    
Average Humidity 76    
Maximum Humidity 91    
Minimum Humidity 50    
Precipitation  
Precipitation 0.36 in - - ()
Sea Level Pressure  
Sea Level Pressure 29.93 in    
Wind  
Wind Speed 5 mph (WSW)    
Max Wind Speed 26 mph    
Max Gust Speed 37 mph    
Visibility 9 miles    
Events Rain , Thunderstorm    
Averages and records for this station are not official NWS values.
T = Trace of Precipitation, MM = Missing Value Source: NWS Daily Summary

Daily Weather History Graph

Daily Weather History Graph

Search for Another Location

Airport or City:

Trip Planner

Search our weather history database for the weather conditions in past years. The results will help you decide how hot, cold, wet, or windy it might be!

Date:

Astronomy

Jun. 07, 2014 Rise Set
Actual Time 5:44 AM CDT 7:49 PM CDT
Civil Twilight 5:17 AM CDT 8:16 PM CDT
Nautical Twilight 4:43 AM CDT 8:50 PM CDT
Astronomical Twilight 4:08 AM CDT 9:26 PM CDT
Moon 2:26 PM CDT (6/7) 1:43 AM CDT (6/7)
Length of Visible Light 14h 59m
Length of Day
14h 04m
Waxing Gibbous, 68% of the Moon is Illuminated
Jun 7
Waxing Gibbous
Jun 12
Full
Jun 19
Last Quarter
Jun 27
New
Jul 5
First Quarter

Hourly Weather History & Observations

Time (CDT) Temp. Heat Index Dew Point Humidity Pressure Visibility Wind Dir Wind Speed Gust Speed Precip Events Conditions
12:56 AM 75.9 °F - 66.9 °F 74% 29.91 in 10.0 mi SSW 4.6 mph - N/A   Clear
1:56 AM 75.0 °F - 69.1 °F 82% 29.90 in 10.0 mi South 3.5 mph - N/A   Clear
2:56 AM 75.0 °F - 70.0 °F 84% 29.89 in 10.0 mi South 3.5 mph - N/A   Clear
3:56 AM 75.0 °F - 70.0 °F 84% 29.90 in 10.0 mi Calm Calm - N/A   Clear
4:56 AM 73.9 °F - 70.0 °F 87% 29.94 in 10.0 mi Calm Calm - N/A   Clear
5:56 AM 72.0 °F - 69.1 °F 91% 29.94 in 10.0 mi Calm Calm - N/A   Clear
6:56 AM 75.9 °F - 72.0 °F 87% 29.95 in 10.0 mi Calm Calm - N/A   Clear
7:56 AM 82.0 °F 88.6 °F 75.0 °F 79% 29.96 in 10.0 mi Calm Calm - N/A   Partly Cloudy
8:56 AM 84.9 °F 94.1 °F 75.9 °F 74% 29.97 in 10.0 mi Variable 3.5 mph - N/A   Scattered Clouds
9:25 AM 84.9 °F 93.3 °F 75.0 °F 72% 30.01 in 10.0 mi WNW 4.6 mph - N/A   Mostly Cloudy
9:34 AM 87.1 °F 96.3 °F 75.0 °F 67% 30.01 in 10.0 mi Calm Calm - N/A   Mostly Cloudy
9:41 AM 86.0 °F 95.1 °F 75.0 °F 70% 30.01 in 10.0 mi NW 4.6 mph - N/A   Mostly Cloudy
9:53 AM 87.8 °F 97.6 °F 75.2 °F 66% 30.01 in 10.0 mi Variable 4.6 mph - N/A   Mostly Cloudy
9:56 AM 87.1 °F 96.3 °F 75.0 °F 67% 29.96 in 10.0 mi NW 3.5 mph - N/A   Mostly Cloudy
10:56 AM 89.1 °F 97.0 °F 73.0 °F 59% 29.95 in 10.0 mi Variable 3.5 mph - N/A   Partly Cloudy
11:56 AM 91.9 °F 101.3 °F 73.9 °F 55% 29.94 in 10.0 mi WNW 5.8 mph - N/A   Partly Cloudy
12:56 PM 93.0 °F 100.7 °F 72.0 °F 50% 29.91 in 10.0 mi Calm Calm - N/A   Scattered Clouds
1:56 PM 90.0 °F 101.3 °F 75.9 °F 63% 29.89 in 10.0 mi SSW 12.7 mph 19.6 mph N/A   Mostly Cloudy
2:56 PM 90.0 °F 100.2 °F 75.0 °F 61% 29.89 in 10.0 mi SSW 11.5 mph - N/A   Clear
3:56 PM 89.1 °F 100.2 °F 75.9 °F 65% 29.87 in 10.0 mi South 16.1 mph - N/A   Scattered Clouds
4:56 PM 88.0 °F 97.5 °F 75.0 °F 65% 29.86 in 10.0 mi South 13.8 mph 23.0 mph N/A Thunderstorm Thunderstorm
5:56 PM 86.0 °F 93.8 °F 73.9 °F 67% 29.88 in 10.0 mi South 13.8 mph - N/A Thunderstorm Thunderstorm
6:46 PM 77.0 °F - 70.0 °F 79% 29.97 in 8.0 mi North 26.5 mph 34.5 mph 0.01 in Rain , Thunderstorm Thunderstorms and Rain
6:56 PM 73.9 °F - 66.0 °F 76% 29.93 in 6.0 mi North 15.0 mph 36.8 mph 0.06 in Rain , Thunderstorm Light Thunderstorms and Rain
7:00 PM 72.0 °F - 66.9 °F 84% 29.95 in 2.5 mi North 18.4 mph 25.3 mph 0.13 in Rain , Thunderstorm Heavy Thunderstorms and Rain
7:08 PM 72.0 °F - 66.9 °F 84% 29.94 in 1.2 mi NE 9.2 mph - 0.29 in Rain , Thunderstorm Heavy Thunderstorms and Rain
7:12 PM 72.0 °F - 66.9 °F 84% 29.94 in 3.0 mi Variable 3.5 mph - 0.30 in Rain , Thunderstorm Thunderstorms and Rain
7:21 PM 71.1 °F - 66.9 °F 87% 29.92 in 10.0 mi WNW 4.6 mph - 0.30 in Rain , Thunderstorm Light Thunderstorms and Rain
7:56 PM 72.0 °F - 66.9 °F 84% 29.88 in 10.0 mi WSW 6.9 mph - 0.30 in Thunderstorm Thunderstorm
8:24 PM 72.0 °F - 68.0 °F 87% 29.94 in 10.0 mi ESE 3.5 mph - N/A   Partly Cloudy
8:56 PM 73.9 °F - 68.0 °F 82% 29.91 in 10.0 mi Calm Calm - N/A   Mostly Cloudy
9:13 PM 72.0 °F - 68.0 °F 87% 29.96 in 10.0 mi NW 3.5 mph - N/A   Partly Cloudy
9:56 PM 72.0 °F - 69.1 °F 91% 29.91 in 10.0 mi NW 4.6 mph - N/A   Clear
10:56 PM 75.0 °F - 70.0 °F 84% 29.93 in 10.0 mi SSE 4.6 mph - N/A   Partly Cloudy
11:56 PM 73.9 °F - 71.1 °F 91% 29.93 in 10.0 mi SSW 3.5 mph - N/A   Mostly Cloudy